STARLINK-11268, 61055

Orbit data source: Space-Track

STARLINK-11268, 61055 is a payload satellite owned by SpaceX/Seattle (US) in LEO that was launched on Fri, 13 Sep 2024 UTC via an FALCON 9 launch vehicle from the Air Force Western Test Range (AFWTR). Payload-class satellites include a variety of spacecraft equipped with specific instruments for various scientific and technological missions. These include communications satellites like Starlink; space stations such as the ISS; scientific satellites like the Hubble; Earth observation satellites from companies like Planet Labs, Umbra, and HawkEye 360; GPS; miniature CubeSats for education and research; and military/defense satellites.

Loading next visibility...
Identifier
61055, 2024-164F
Orbit
LEO
Country
Flag of USUS
Related business
Manufacturer
SpaceX/Seattle
Mission
Operational Commercial Communications
Bus & Motor
STARLINK V2MD, Unknown motor
Mass
960 kg wet, ~910 kg dry
Launch date (UTC)
2024-09-13 (2 years ago)
Launch vehicle
FALCON 9
Launch site
Air Force Western Test Range (AFWTR)
Object type
Payload
Rocket body
Debris
Shape & HBR
Box + 2 Pan, 18.1 m
Radar Cross Section
36.964 m², Large (>1 m²)

Expand to show TLE details & history
Last TLE update: 14 hours ago

TLE from 14 hours ago
0 STARLINK-11268
1 61055U 24164F   26171.26824861 -.00002595  00000-0 -16579-4 0  9993
2 61055  53.1598 165.3248 0001187  99.2929 260.8223 15.69694225101538
Epoch: 2026-06-20T06:26Z
TLE epoch observation values (Epoch: 2026-06-20T06:26:16.679Z)
Latitude
-0.00006°
Longitude
160.26995°
Altitude
360.815 km
Speed
7.694 km/s
True Right ascension
11h 01m 17s
True Declination
0° 00' 00"
Sunlit
Object was in daylight at epoch
Visualization orbit readout
Latitude
Unknown
Longitude
Unknown
Altitude
Unknown
Speed
Unknown
Apparent Right ascension
Unknown
Apparent Declination
Unknown
Sunlit
N/A
Visualization observer readout
Local Sidereal Time
07:18:13
Azimuth
Unknown
Elevation
Unknown
Doppler factor
Unknown
Orbital elements
Apogee altitude
360.832 km
Perigee altitude
359.233 km
Semi-major axis
6,738.17 km
Eccentricity
0.00012
Inclination
53.1598°
RAAN
165.3248°
Arg. of periapsis
99.2929°
True anomaly
260.80887°
Mean anomaly
260.8223°
Eccentric anomaly
260.81559°
Mean motion
3.92401 °/min
Orbital period
91.74 mins
BSTAR
-0.000016579
Loading maneuver chart data...
Computing Atmospheric mass density...
Loading historical data...
Loading historical data...
Loading historical data...
Loading historical data...
Loading historical data...
Loading historical data...
Loading historical data...

Documentation

Showing up to 5 results
|